TimeEST,TemperatureF,Dew PointF,Humidity,Sea Level PressureIn,VisibilityMPH,Wind Direction,Wind SpeedMPH,Gust SpeedMPH,PrecipitationIn,Events,Conditions,WindDirDegrees,DateUTC
12:15 AM,39.2,33.8,81,29.65,10.0,NW,6.9,-,N/A,,Overcast,310,2011-11-11 05:15:00
12:35 AM,39.2,33.8,81,29.64,10.0,NNW,8.1,-,N/A,,Overcast,330,2011-11-11 05:35:00
1:35 AM,37.4,33.8,87,29.61,8.0,NNW,10.4,-,0.02,,Overcast,330,2011-11-11 06:35:00
1:55 AM,37.4,33.8,87,29.62,10.0,NNW,5.8,-,0.03,,Overcast,340,2011-11-11 06:55:00
2:15 AM,37.4,33.8,87,29.61,10.0,NNW,4.6,-,0.01,,Overcast,330,2011-11-11 07:15:00
2:35 AM,37.4,33.8,87,29.60,10.0,NW,4.6,-,0.01,,Overcast,310,2011-11-11 07:35:00
2:55 AM,37.4,33.8,87,29.59,10.0,West,3.5,-,0.01,,Overcast,270,2011-11-11 07:55:00
3:35 AM,37.4,33.8,87,29.58,10.0,West,4.6,-,N/A,,Overcast,280,2011-11-11 08:35:00
4:15 AM,37.4,33.8,87,29.57,10.0,NNW,3.5,-,N/A,,Overcast,330,2011-11-11 09:15:00
4:35 AM,37.4,33.8,87,29.55,10.0,NNW,5.8,-,N/A,,Overcast,330,2011-11-11 09:35:00
4:55 AM,37.4,33.8,87,29.54,10.0,North,3.5,-,N/A,,Overcast,350,2011-11-11 09:55:00
5:35 AM,37.4,33.8,87,29.55,10.0,WNW,4.6,-,N/A,,Overcast,300,2011-11-11 10:35:00
5:55 AM,37.4,33.8,87,29.54,10.0,NW,5.8,-,N/A,,Overcast,310,2011-11-11 10:55:00
6:15 AM,37.4,33.8,87,29.54,10.0,NW,5.8,-,N/A,,Overcast,310,2011-11-11 11:15:00
6:55 AM,37.4,33.8,87,29.55,10.0,NNW,3.5,-,N/A,,Overcast,330,2011-11-11 11:55:00
7:35 AM,37.4,33.8,87,29.56,10.0,NW,5.8,-,N/A,,Overcast,310,2011-11-11 12:35:00
7:55 AM,37.4,33.8,87,29.56,10.0,NW,5.8,-,N/A,,Overcast,320,2011-11-11 12:55:00
8:15 AM,37.4,33.8,87,29.56,10.0,NNW,3.5,-,N/A,,Overcast,330,2011-11-11 13:15:00
8:35 AM,37.4,33.8,87,29.55,10.0,North,3.5,-,N/A,,Mostly Cloudy,350,2011-11-11 13:35:00
9:15 AM,39.2,30.2,70,29.54,10.0,NNW,6.9,-,N/A,,Scattered Clouds,330,2011-11-11 14:15:00
9:35 AM,-9999,-9999,N/A,29.54,10.0,NW,6.9,-,N/A,,Partly Cloudy,320,2011-11-11 14:35:00
9:55 AM,41.0,30.2,65,29.54,10.0,NW,11.5,-,N/A,,Clear,320,2011-11-11 14:55:00
10:35 AM,42.8,28.4,57,29.54,10.0,NW,9.2,-,N/A,,Partly Cloudy,310,2011-11-11 15:35:00
10:55 AM,42.8,28.4,57,29.54,10.0,NW,10.4,16.1,N/A,,Mostly Cloudy,320,2011-11-11 15:55:00
11:15 AM,42.8,28.4,57,29.53,10.0,WNW,11.5,-,N/A,,Overcast,300,2011-11-11 16:15:00
11:35 AM,42.8,26.6,53,29.53,10.0,West,11.5,-,N/A,,Overcast,280,2011-11-11 16:35:00
11:55 AM,42.8,24.8,49,29.53,10.0,West,12.7,17.3,N/A,,Overcast,280,2011-11-11 16:55:00
12:15 PM,-9999,-9999,N/A,29.52,10.0,West,15.0,21.9,N/A,,Overcast,280,2011-11-11 17:15:00
12:35 PM,42.8,24.8,49,29.53,10.0,WNW,13.8,17.3,N/A,,Overcast,300,2011-11-11 17:35:00
12:55 PM,41.0,26.6,57,29.53,10.0,West,10.4,-,N/A,,Mostly Cloudy,280,2011-11-11 17:55:00
1:55 PM,37.4,26.6,65,29.55,10.0,NW,4.6,-,0.01,,Mostly Cloudy,320,2011-11-11 18:55:00
2:15 PM,39.2,26.6,61,29.56,10.0,West,11.5,18.4,N/A,,Mostly Cloudy,280,2011-11-11 19:15:00
2:35 PM,39.2,26.6,61,29.57,10.0,WNW,13.8,26.5,N/A,,Overcast,290,2011-11-11 19:35:00
2:55 PM,-9999,-9999,N/A,29.56,10.0,WNW,18.4,27.6,N/A,,Scattered Clouds,290,2011-11-11 19:55:00
3:15 PM,-9999,-9999,N/A,29.57,10.0,WNW,17.3,24.2,N/A,,Mostly Cloudy,290,2011-11-11 20:15:00
3:35 PM,-9999,-9999,N/A,29.59,10.0,WNW,11.5,18.4,N/A,,Mostly Cloudy,290,2011-11-11 20:35:00
4:15 PM,39.2,26.6,61,29.60,10.0,West,15.0,20.7,N/A,,Overcast,280,2011-11-11 21:15:00
4:35 PM,39.2,24.8,56,29.61,10.0,WNW,11.5,16.1,N/A,,Overcast,290,2011-11-11 21:35:00
5:35 PM,39.2,24.8,56,29.64,10.0,West,10.4,-,N/A,,Overcast,270,2011-11-11 22:35:00
5:55 PM,39.2,24.8,56,29.66,10.0,WNW,12.7,-,N/A,,Overcast,290,2011-11-11 22:55:00
6:15 PM,37.4,24.8,60,29.67,10.0,WNW,11.5,-,N/A,,Overcast,290,2011-11-11 23:15:00
6:35 PM,37.4,24.8,60,29.68,9.0,WNW,6.9,19.6,N/A,,Overcast,300,2011-11-11 23:35:00
6:55 PM,37.4,26.6,65,29.69,10.0,WNW,8.1,-,N/A,,Overcast,300,2011-11-11 23:55:00
7:15 PM,35.6,26.6,70,29.70,10.0,WNW,10.4,-,N/A,,Overcast,300,2011-11-12 00:15:00
7:55 PM,37.4,24.8,60,29.72,10.0,West,13.8,24.2,N/A,,Mostly Cloudy,280,2011-11-12 00:55:00
8:15 PM,37.4,24.8,60,29.73,9.0,NW,9.2,20.7,N/A,,Overcast,310,2011-11-12 01:15:00
8:35 PM,35.6,24.8,65,29.74,10.0,NW,9.2,-,N/A,,Mostly Cloudy,320,2011-11-12 01:35:00
8:55 PM,37.4,23.0,56,29.76,10.0,WNW,11.5,19.6,N/A,,Overcast,290,2011-11-12 01:55:00
9:15 PM,35.6,23.0,60,29.77,10.0,West,11.5,17.3,N/A,,Overcast,280,2011-11-12 02:15:00
9:35 PM,35.6,23.0,60,29.77,10.0,WNW,10.4,18.4,N/A,,Overcast,290,2011-11-12 02:35:00
9:55 PM,35.6,23.0,60,29.78,10.0,WNW,10.4,18.4,N/A,,Overcast,290,2011-11-12 02:55:00
10:15 PM,35.6,23.0,60,29.79,10.0,WNW,8.1,-,N/A,,Overcast,300,2011-11-12 03:15:00
10:35 PM,35.6,21.2,56,29.79,10.0,WNW,12.7,19.6,N/A,,Overcast,300,2011-11-12 03:35:00
10:55 PM,35.6,23.0,60,29.80,10.0,West,10.4,-,N/A,,Overcast,280,2011-11-12 03:55:00
11:15 PM,35.6,19.4,52,29.81,10.0,West,23.0,31.1,N/A,,Overcast,280,2011-11-12 04:15:00
11:55 PM,35.6,19.4,52,29.83,10.0,West,13.8,27.6,N/A,,Overcast,270,2011-11-12 04:55:00